Regional Weather Roundup
Issued by NWS

Home | Current Version | Previous Version | Graphics & Text | Print | Product List | Glossary On
Versions: 1 2 3 4 5 6 7 8 9 10 11 12 13 14 15 16 17 18 19 20 21 22 23 24 25 26 27 28
000
ASUS45 KCYS 230610
RWRWY

WYOMING REGIONAL WEATHER ROUNDUP
NATIONAL WEATHER SERVICE CHEYENNE WY
1200 AM MDT SUN JUL 23 2017

NOTE:  "FAIR" INDICATES FEW OR NO CLOUDS BELOW 12,000 FEET
WITH NO SIGNIFICANT WEATHER AND/OR OBSTRUCTIONS TO VISIBILITY.

WYZ001-230700-
YELLOWSTONE NATIONAL PARK

CITY           SKY/WX    TMP DP  RH WIND       PRES   REMARKS
LK YELLOWSTONE   N/A     48  37  65 CALM      30.42S
6HR MIN TEMP:  48; 6HR MAX TEMP:  77;

W YELLOWSTONE  NOT AVBL

$$
WYZ002>013-054>058-071-098>099-230700-
NORTHERN WYOMING

CITY           SKY/WX    TMP DP  RH WIND       PRES   REMARKS
JACKSON        FAIR      50  41  71 N3        30.30R
CODY           FAIR      64  33  31 SW5       30.21S
GREYBULL       FAIR      72  33  24 SW5       30.08S
6HR MIN TEMP:  71; 6HR MAX TEMP:  94;

WORLAND        FAIR      66  35  31 CALM      30.11R
6HR MIN TEMP:  66; 6HR MAX TEMP:  92;

SHERIDAN       FAIR      62  43  49 CALM      30.14S
6HR MIN TEMP:  58; 6HR MAX TEMP:  89;

BUFFALO        FAIR      68  33  27 NW9       30.22R
6HR MIN TEMP:  66; 6HR MAX TEMP:  86;

GILLETTE       FAIR      57  35  43 CALM      30.17R
6HR MIN TEMP:  56; 6HR MAX TEMP:  89;

HULETT         FAIR      64  36  34 E8        30.18R
NEWCASTLE      FAIR      70  34  26 N7        30.15S

$$
WYZ014>020-022>026-101>103-230700-
CENTRAL WYOMING

CITY           SKY/WX    TMP DP  RH WIND       PRES   REMARKS
BIG PINEY      FAIR      55  35  47 N8        30.32R
6HR MIN TEMP:  54; 6HR MAX TEMP:  84;

PINEDALE       FAIR      52  41  66 NW8       30.34S
DUBOIS         FAIR      59  32  36 NW6       30.35R
LANDER         FAIR      71  35  26 W15       30.19R
6HR MIN TEMP:  70; 6HR MAX TEMP:  88;

RIVERTON       FAIR      73  30  20 N10       30.19R
6HR MIN TEMP:  73; 6HR MAX TEMP:  89;

CASPER         FAIR      60  35  39 W7        30.19R
6HR MIN TEMP:  60; 6HR MAX TEMP:  90;

DOUGLAS        FAIR      63  52  67 E5        30.18S
6HR MIN TEMP:  63; 6HR MAX TEMP:  90;


$$
WYZ021-027>030-104>119-230700-
SOUTHERN WYOMING

CITY           SKY/WX    TMP DP  RH WIND       PRES   REMARKS
EVANSTON       FAIR      69  30  23 S5        30.33R
6HR MIN TEMP:  67; 6HR MAX TEMP:  86;

KEMMERER         N/A     61  30  31 NW7       30.34R
FORT BRIDGER   FAIR      68  27  21 W8        30.34S
ROCK SPRINGS   FAIR      70  28  21 N6        30.27S
6HR MIN TEMP:  70; 6HR MAX TEMP:  87;

RAWLINS        FAIR      57  27  31 CALM      30.30R
6HR MIN TEMP:  56; 6HR MAX TEMP:  85;

SARATOGA       FAIR      59  39  47 CALM      30.33R
LARAMIE        FAIR      57  48  72 SW9       30.34S
6HR MIN TEMP:  57; 6HR MAX TEMP:  80;

CHEYENNE       FAIR      65  47  52 SW6       30.27R
6HR MIN TEMP:  65; 6HR MAX TEMP:  85;

TORRINGTON     FAIR      67  55  65 E8        30.13R
6HR MIN TEMP:  67; 6HR MAX TEMP:  91;

PINE BLUFFS    FAIR      61  46  59 CALM      30.21S

$$




USA.gov is the U.S. government's official web portal to all federal, state and local government web resources and services.